Check out our new BloomSky Weather System.

Active alerts

Fort Bend, TX
  Details for Fort Bend, TX River Flood Warning  +1 additional alert
Houston, TX
  Details for Houston, TX Wind Advisory
Galveston, TX
  Details for Galveston, TX Wind Advisory


Thunder radar  blitzortung!


Rain radar more information rain snow radar


Visit our other weather sites:

Template documentation
and downloads

And another site



Weather Underground History page Text

Daily Summary for January 3, 2018 Units:  English    Metric   Both
« Previous Day
Next Day »
Daily Weekly Monthly Yearly Custom
  High: Low: Average:
Temperature: TemperatureF °F 23.7 °F 32.9 °F
Dew Point: DewpointF °F 13.6 °F 18.5 °F
Humidity: Humidity % 32 % 57 %
Wind Speed: WindSpeedMPH mph 0.0 mph 1.8 mph
Wind Gust: WindSpeedGustMPH mph - -
Wind:- - WNW
Pressure: PressureIn in 30.32 in -
Precipitation: 0.00 in    
Historical Graphs
 
 
Tabular Data for January 3, 2018
Time Temperature Dew Point Pressure Wind Wind Speed Wind Gust Humidity Rainfall Rate (Hourly)
TemperatureF °F DewpointF °F PressureIn in Calm     Humidity % HourlyPrecipIn in
00:02 28.9 °F 19.8 °F 30.50 in NW 3.0 mph 9.0 mph 68 % 0.00 in
00:05 28.9 °F 19.4 °F 30.49 in NW 5.0 mph 9.0 mph 67 % 0.00 in
00:08 28.9 °F 19.4 °F 30.50 in NNW 6.0 mph 9.0 mph 67 % 0.00 in
00:10 28.9 °F 19.4 °F 30.49 in NNW 3.0 mph 8.0 mph 67 % 0.00 in
00:15 28.9 °F 19.0 °F 30.49 in NW 4.0 mph 9.0 mph 66 % 0.00 in
00:22 28.9 °F 19.0 °F 30.49 in NW 3.0 mph 9.0 mph 66 % 0.00 in
00:23 28.8 °F 18.9 °F 30.49 in NW 5.0 mph 9.0 mph 66 % 0.00 in
00:29 28.8 °F 18.9 °F 30.48 in NW 4.0 mph 9.0 mph 66 % 0.00 in
00:32 28.8 °F 18.9 °F 30.48 in NW 3.0 mph 9.0 mph 66 % 0.00 in
00:35 28.8 °F 18.9 °F 30.49 in NNE 3.0 mph 8.0 mph 66 % 0.00 in
00:45 28.9 °F 18.0 °F 30.48 in NW 2.0 mph 9.0 mph 63 % 0.00 in
00:50 28.9 °F 17.6 °F 30.48 in NW 2.0 mph 9.0 mph 62 % 0.00 in
00:53 28.9 °F 17.6 °F 30.48 in North 5.0 mph 9.0 mph 62 % 0.00 in
00:58 28.9 °F 17.6 °F 30.48 in NNW 1.0 mph 9.0 mph 62 % 0.00 in
01:03 28.9 °F 17.6 °F 30.48 in WNW 1.0 mph 9.0 mph 62 % 0.00 in
01:04 28.9 °F 17.6 °F 30.48 in NW 3.0 mph 9.0 mph 62 % 0.00 in
01:08 28.9 °F 17.2 °F 30.48 in WNW 1.0 mph 9.0 mph 61 % 0.00 in
01:10 28.9 °F 17.6 °F 30.48 in NW 3.0 mph 9.0 mph 62 % 0.00 in
01:15 28.8 °F 17.1 °F 30.48 in NNW 3.0 mph 9.0 mph 61 % 0.00 in
01:19 28.8 °F 16.7 °F 30.48 in NNW 3.0 mph 9.0 mph 60 % 0.00 in
01:22 28.8 °F 16.2 °F 30.47 in NW 4.0 mph 7.0 mph 59 % 0.00 in
01:27 28.8 °F 16.7 °F 30.47 in North 2.0 mph 7.0 mph 60 % 0.00 in
01:28 28.8 °F 16.7 °F 30.47 in NW 2.0 mph 7.0 mph 60 % 0.00 in
01:33 28.6 °F 16.5 °F 30.47 in NW 1.0 mph 6.0 mph 60 % 0.00 in
01:35 28.6 °F 16.5 °F 30.47 in NNW 4.0 mph 6.0 mph 60 % 0.00 in
01:40 28.4 °F 16.3 °F 30.48 in NW 2.0 mph 5.0 mph 60 % 0.00 in
01:41 28.4 °F 16.3 °F 30.47 in Calm   5.0 mph 60 % 0.00 in
01:42 28.2 °F 16.2 °F 30.47 in NNW 1.0 mph 5.0 mph 60 % 0.00 in
01:47 28.2 °F 15.8 °F 30.48 in NNW 2.0 mph 11.0 mph 59 % 0.00 in
01:53 28.0 °F 15.6 °F 30.48 in North 2.0 mph 11.0 mph 59 % 0.00 in
01:57 28.0 °F 15.6 °F 30.48 in WNW 1.0 mph 11.0 mph 59 % 0.00 in
02:00 27.9 °F 15.4 °F 30.47 in NNW 3.0 mph 6.0 mph 59 % 0.00 in
02:06 27.9 °F 15.4 °F 30.48 in Calm   5.0 mph 59 % 0.00 in
02:08 27.7 °F 15.3 °F 30.47 in NW 3.0 mph 5.0 mph 59 % 0.00 in
02:13 27.7 °F 15.3 °F 30.47 in Calm   5.0 mph 59 % 0.00 in
02:14 27.7 °F 15.3 °F 30.47 in North 2.0 mph 5.0 mph 59 % 0.00 in
02:19 27.5 °F 14.7 °F 30.47 in SW 3.0 mph 5.0 mph 58 % 0.00 in
02:20 27.5 °F 14.7 °F 30.47 in NNW 2.0 mph 8.0 mph 58 % 0.00 in
02:27 27.3 °F 14.9 °F 30.47 in NW 1.0 mph 8.0 mph 59 % 0.00 in
02:32 27.3 °F 14.9 °F 30.47 in NW 6.0 mph 8.0 mph 59 % 0.00 in
02:33 27.3 °F 14.9 °F 30.47 in NNW 1.0 mph 8.0 mph 59 % 0.00 in
02:38 27.3 °F 14.9 °F 30.47 in NNW 3.0 mph 9.0 mph 59 % 0.00 in
02:40 27.1 °F 14.7 °F 30.46 in North 3.0 mph 9.0 mph 59 % 0.00 in
02:44 27.1 °F 14.7 °F 30.46 in NNW 3.0 mph 9.0 mph 59 % 0.00 in
02:45 27.1 °F 14.7 °F 30.46 in NW 2.0 mph 9.0 mph 59 % 0.00 in
02:50 27.0 °F 14.9 °F 30.46 in NW 1.0 mph 9.0 mph 60 % 0.00 in
02:54 27.0 °F 14.9 °F 30.46 in NW 2.0 mph 9.0 mph 60 % 0.00 in
02:56 26.8 °F 14.7 °F 30.46 in NNW 2.0 mph 6.0 mph 60 % 0.00 in
02:59 26.8 °F 14.7 °F 30.46 in NW 5.0 mph 6.0 mph 60 % 0.00 in
03:04 26.8 °F 14.7 °F 30.46 in NNW 1.0 mph 7.0 mph 60 % 0.00 in
03:07 26.8 °F 15.1 °F 30.46 in NNW 1.0 mph 7.0 mph 61 % 0.00 in
03:12 26.6 °F 14.9 °F 30.46 in North 2.0 mph 7.0 mph 61 % 0.00 in
03:14 26.4 °F 14.7 °F 30.46 in Calm   7.0 mph 61 % 0.00 in
03:16 26.4 °F 14.7 °F 30.46 in NNW 1.0 mph 5.0 mph 61 % 0.00 in
03:21 26.4 °F 14.7 °F 30.45 in North 4.0 mph 4.0 mph 61 % 0.00 in
03:28 26.2 °F 15.1 °F 30.46 in Calm   8.0 mph 62 % 0.00 in
03:31 26.2 °F 15.1 °F 30.45 in NNW 3.0 mph 8.0 mph 62 % 0.00 in
03:36 26.1 °F 14.9 °F 30.45 in NW 1.0 mph 8.0 mph 62 % 0.00 in
03:37 26.1 °F 14.9 °F 30.45 in Calm   8.0 mph 62 % 0.00 in
03:40 26.1 °F 14.9 °F 30.45 in Calm   5.0 mph 62 % 0.00 in
03:45 25.9 °F 15.1 °F 30.45 in NW 1.0 mph 4.0 mph 63 % 0.00 in
03:46 25.9 °F 15.1 °F 30.46 in Calm   4.0 mph 63 % 0.00 in
03:51 25.9 °F 15.1 °F 30.45 in Calm   3.0 mph 63 % 0.00 in
03:54 25.7 °F 14.9 °F 30.45 in NNW 1.0 mph 3.0 mph 63 % 0.00 in
03:59 25.7 °F 14.9 °F 30.45 in NNW 1.0 mph 4.0 mph 63 % 0.00 in
04:04 25.7 °F 14.9 °F 30.46 in NW 2.0 mph 4.0 mph 63 % 0.00 in
04:06 25.5 °F 14.7 °F 30.46 in NNW 5.0 mph 5.0 mph 63 % 0.00 in
04:11 25.5 °F 14.7 °F 30.46 in NNW 4.0 mph 5.0 mph 63 % 0.00 in
04:12 25.5 °F 14.7 °F 30.46 in WNW 3.0 mph 5.0 mph 63 % 0.00 in
04:13 25.7 °F 14.9 °F 30.46 in NNW 1.0 mph 5.0 mph 63 % 0.00 in
04:18 25.7 °F 14.5 °F 30.46 in NNW 1.0 mph 10.0 mph 62 % 0.00 in
04:19 25.7 °F 14.5 °F 30.46 in NNW 2.0 mph 10.0 mph 62 % 0.00 in
04:23 25.7 °F 14.9 °F 30.46 in NW 6.0 mph 10.0 mph 63 % 0.00 in
04:26 25.7 °F 14.9 °F 30.46 in NW 1.0 mph 10.0 mph 63 % 0.00 in
04:31 25.5 °F 14.7 °F 30.46 in NW 1.0 mph 6.0 mph 63 % 0.00 in
04:32 25.5 °F 14.7 °F 30.46 in NW 1.0 mph 6.0 mph 63 % 0.00 in
04:37 25.3 °F 14.9 °F 30.46 in West 1.0 mph 6.0 mph 64 % 0.00 in
04:42 25.2 °F 15.1 °F 30.46 in Calm   4.0 mph 65 % 0.00 in
04:44 25.2 °F 15.1 °F 30.46 in West 1.0 mph 4.0 mph 65 % 0.00 in
04:49 25.0 °F 15.3 °F 30.46 in NW 1.0 mph 4.0 mph 66 % 0.00 in
04:50 25.0 °F 15.3 °F 30.46 in NNW 4.0 mph 4.0 mph 66 % 0.00 in
04:55 25.0 °F 15.3 °F 30.46 in NW 1.0 mph 4.0 mph 66 % 0.00 in
04:56 25.0 °F 15.3 °F 30.46 in NNW 3.0 mph 4.0 mph 66 % 0.00 in
05:01 24.8 °F 15.1 °F 30.46 in NNW 1.0 mph 4.0 mph 66 % 0.00 in
05:06 25.0 °F 15.3 °F 30.46 in NW 5.0 mph 5.0 mph 66 % 0.00 in
05:07 24.8 °F 15.1 °F 30.46 in NNW 2.0 mph 4.0 mph 66 % 0.00 in
05:12 25.0 °F 14.9 °F 30.46 in Calm   7.0 mph 65 % 0.00 in
05:13 25.0 °F 14.9 °F 30.46 in NNW 1.0 mph 7.0 mph 65 % 0.00 in
05:18 24.8 °F 14.7 °F 30.46 in NW 3.0 mph 7.0 mph 65 % 0.00 in
05:19 24.8 °F 14.7 °F 30.47 in NNW 1.0 mph 7.0 mph 65 % 0.00 in
05:24 25.0 °F 14.9 °F 30.47 in NNW 2.0 mph 7.0 mph 65 % 0.00 in
05:25 25.0 °F 14.9 °F 30.47 in NW 3.0 mph 6.0 mph 65 % 0.00 in
05:31 25.0 °F 14.9 °F 30.47 in NW 1.0 mph 6.0 mph 65 % 0.00 in
05:36 24.8 °F 14.7 °F 30.47 in NNW 3.0 mph 6.0 mph 65 % 0.00 in
05:41 24.6 °F 14.5 °F 30.47 in NW 1.0 mph 7.0 mph 65 % 0.00 in
05:43 24.6 °F 14.5 °F 30.47 in NW 4.0 mph 7.0 mph 65 % 0.00 in
05:48 24.6 °F 14.5 °F 30.48 in NNW 2.0 mph 7.0 mph 65 % 0.00 in
05:51 24.6 °F 14.5 °F 30.48 in Calm   7.0 mph 65 % 0.00 in
05:55 24.4 °F 14.4 °F 30.48 in Calm   6.0 mph 65 % 0.00 in
06:00 24.4 °F 14.4 °F 30.48 in Calm   6.0 mph 65 % 0.00 in
06:03 24.4 °F 14.4 °F 30.48 in Calm   6.0 mph 65 % 0.00 in
06:08 24.4 °F 14.4 °F 30.48 in NW 5.0 mph 6.0 mph 65 % 0.00 in
06:12 24.4 °F 14.4 °F 30.48 in NW 2.0 mph 6.0 mph 65 % 0.00 in
06:17 24.4 °F 14.7 °F 30.48 in NNE 1.0 mph 6.0 mph 66 % 0.00 in
06:18 24.3 °F 14.5 °F 30.48 in NW 2.0 mph 6.0 mph 66 % 0.00 in
06:23 24.3 °F 14.5 °F 30.48 in NNW 3.0 mph 6.0 mph 66 % 0.00 in
06:25 24.3 °F 14.5 °F 30.48 in Calm   7.0 mph 66 % 0.00 in
06:26 24.3 °F 14.5 °F 30.48 in NNW 1.0 mph 7.0 mph 66 % 0.00 in
06:30 24.3 °F 14.5 °F 30.48 in NW 4.0 mph 7.0 mph 66 % 0.00 in
06:34 24.3 °F 14.2 °F 30.48 in NNW 1.0 mph 7.0 mph 65 % 0.00 in
06:39 24.1 °F 14.4 °F 30.48 in NW 4.0 mph 7.0 mph 66 % 0.00 in
06:44 24.1 °F 14.4 °F 30.48 in NNW 2.0 mph 6.0 mph 66 % 0.00 in
06:45 24.1 °F 14.4 °F 30.48 in NNW 2.0 mph 6.0 mph 66 % 0.00 in
06:50 24.1 °F 14.4 °F 30.48 in NW 5.0 mph 7.0 mph 66 % 0.00 in
06:52 24.1 °F 14.0 °F 30.48 in North 3.0 mph 7.0 mph 65 % 0.00 in
06:53 24.1 °F 14.0 °F 30.48 in NW 1.0 mph 7.0 mph 65 % 0.00 in
06:58 24.1 °F 14.0 °F 30.48 in NNW 2.0 mph 7.0 mph 65 % 0.00 in
06:59 24.1 °F 14.0 °F 30.48 in NW 4.0 mph 7.0 mph 65 % 0.00 in
07:04 23.9 °F 13.8 °F 30.48 in NNW 2.0 mph 7.0 mph 65 % 0.00 in
07:09 23.9 °F 13.8 °F 30.48 in NW 1.0 mph 6.0 mph 65 % 0.00 in
07:11 23.7 °F 13.6 °F 30.48 in WNW 3.0 mph 5.0 mph 65 % 0.00 in
07:16 23.7 °F 13.6 °F 30.48 in NNW 1.0 mph 4.0 mph 65 % 0.00 in
07:17 23.7 °F 13.6 °F 30.48 in NNW 1.0 mph 4.0 mph 65 % 0.00 in
07:20 23.7 °F 13.6 °F 30.48 in NNW 2.0 mph 4.0 mph 65 % 0.00 in
07:25 23.7 °F 13.6 °F 30.48 in Calm   4.0 mph 65 % 0.00 in
07:29 23.7 °F 13.6 °F 30.48 in NNW 1.0 mph 4.0 mph 65 % 0.00 in
07:34 23.7 °F 13.6 °F 30.48 in Calm   4.0 mph 65 % 0.00 in
07:38 23.7 °F 13.6 °F 30.48 in Calm   4.0 mph 65 % 0.00 in
07:44 23.7 °F 13.6 °F 30.48 in NNW 3.0 mph 4.0 mph 65 % 0.00 in
07:49 24.1 °F 14.0 °F 30.48 in NW 3.0 mph 4.0 mph 65 % 0.00 in
07:51 24.1 °F 14.0 °F 30.48 in NW 3.0 mph 5.0 mph 65 % 0.00 in
07:56 24.4 °F 14.4 °F 30.48 in NW 1.0 mph 5.0 mph 65 % 0.00 in
07:57 24.4 °F 14.4 °F 30.48 in Calm   5.0 mph 65 % 0.00 in
08:02 24.6 °F 14.2 °F 30.48 in NW 2.0 mph 5.0 mph 64 % 0.00 in
08:07 25.0 °F 14.5 °F 30.48 in Calm   5.0 mph 64 % 0.00 in
08:10 25.2 °F 14.7 °F 30.48 in NNW 1.0 mph 5.0 mph 64 % 0.00 in
08:13 25.2 °F 14.4 °F 30.48 in NW 3.0 mph 5.0 mph 63 % 0.00 in
08:17 25.3 °F 14.5 °F 30.48 in Calm   5.0 mph 63 % 0.00 in
08:18 25.5 °F 14.7 °F 30.48 in NNW 2.0 mph 5.0 mph 63 % 0.00 in
08:24 25.9 °F 14.7 °F 30.48 in North 3.0 mph 5.0 mph 62 % 0.00 in
08:29 26.1 °F 14.5 °F 30.48 in WSW 2.0 mph 5.0 mph 61 % 0.00 in
08:34 26.2 °F 15.1 °F 30.48 in Calm   5.0 mph 62 % 0.00 in
08:36 26.6 °F 15.3 °F 30.48 in North 1.0 mph 5.0 mph 62 % 0.00 in
08:39 26.8 °F 15.1 °F 30.49 in North 2.0 mph 5.0 mph 61 % 0.00 in
08:44 27.1 °F 15.1 °F 30.49 in NW 3.0 mph 5.0 mph 60 % 0.00 in
08:46 27.1 °F 15.1 °F 30.49 in NW 4.0 mph 7.0 mph 60 % 0.00 in
08:52 27.3 °F 14.9 °F 30.49 in NW 5.0 mph 7.0 mph 59 % 0.00 in
08:57 27.7 °F 15.3 °F 30.49 in NNW 5.0 mph 7.0 mph 59 % 0.00 in
08:58 27.7 °F 15.3 °F 30.49 in NNW 6.0 mph 7.0 mph 59 % 0.00 in
09:03 27.9 °F 15.4 °F 30.49 in NNW 2.0 mph 7.0 mph 59 % 0.00 in
09:05 28.0 °F 15.6 °F 30.49 in NNW 4.0 mph 7.0 mph 59 % 0.00 in
09:10 28.8 °F 16.2 °F 30.49 in NW 3.0 mph 7.0 mph 59 % 0.00 in
09:15 29.1 °F 15.8 °F 30.50 in NW 2.0 mph 6.0 mph 57 % 0.00 in
09:16 29.1 °F 15.8 °F 30.50 in NW 2.0 mph 6.0 mph 57 % 0.00 in
09:21 29.5 °F 16.5 °F 30.49 in NNE 1.0 mph 6.0 mph 58 % 0.00 in
09:23 29.5 °F 15.8 °F 30.49 in North 2.0 mph 6.0 mph 56 % 0.00 in
09:31 30.0 °F 16.2 °F 30.50 in NNW 3.0 mph 6.0 mph 56 % 0.00 in
09:36 30.4 °F 16.2 °F 30.50 in NNW 1.0 mph 7.0 mph 55 % 0.00 in
09:37 30.6 °F 16.3 °F 30.50 in NW 5.0 mph 7.0 mph 55 % 0.00 in
09:41 30.9 °F 16.7 °F 30.50 in NNW 3.0 mph 7.0 mph 55 % 0.00 in
09:44 31.1 °F 16.3 °F 30.50 in NW 5.0 mph 7.0 mph 54 % 0.00 in
09:49 31.3 °F 16.2 °F 30.50 in NW 4.0 mph 8.0 mph 53 % 0.00 in
09:54 31.1 °F 16.0 °F 30.50 in NW 2.0 mph 8.0 mph 53 % 0.00 in
09:59 31.3 °F 16.2 °F 30.50 in WNW 6.0 mph 8.0 mph 53 % 0.00 in
10:02 31.5 °F 15.8 °F 30.50 in WNW 6.0 mph 10.0 mph 52 % 0.00 in
10:07 31.8 °F 16.2 °F 30.49 in NNW 7.0 mph 10.0 mph 52 % 0.00 in
10:12 32.4 °F 16.3 °F 30.49 in North 1.0 mph 10.0 mph 51 % 0.00 in
10:16 32.7 °F 16.2 °F 30.49 in NNE 7.0 mph 8.0 mph 50 % 0.00 in
10:17 32.7 °F 16.2 °F 30.49 in NNW 2.0 mph 8.0 mph 50 % 0.00 in
10:22 33.1 °F 16.5 °F 30.49 in NW 2.0 mph 8.0 mph 50 % 0.00 in
10:24 33.3 °F 16.7 °F 30.49 in NW 3.0 mph 8.0 mph 50 % 0.00 in
10:29 33.8 °F 16.7 °F 30.49 in Calm   8.0 mph 49 % 0.00 in
10:30 33.8 °F 16.2 °F 30.49 in WNW 1.0 mph 8.0 mph 48 % 0.00 in
10:36 33.8 °F 16.2 °F 30.48 in NNW 5.0 mph 8.0 mph 48 % 0.00 in
10:41 34.0 °F 16.3 °F 30.48 in NNW 5.0 mph 8.0 mph 48 % 0.00 in
10:42 34.2 °F 16.5 °F 30.48 in North 10.0 mph 10.0 mph 48 % 0.00 in
10:49 34.3 °F 16.7 °F 30.48 in NNE 3.0 mph 13.0 mph 48 % 0.00 in
10:52 34.5 °F 16.9 °F 30.48 in NW 5.0 mph 13.0 mph 48 % 0.00 in
10:56 34.9 °F 17.2 °F 30.47 in NNW 4.0 mph 13.0 mph 48 % 0.00 in
11:01 35.4 °F 16.7 °F 30.47 in NNW 2.0 mph 9.0 mph 46 % 0.00 in
11:03 35.4 °F 16.7 °F 30.47 in North 2.0 mph 9.0 mph 46 % 0.00 in
11:08 35.6 °F 16.3 °F 30.47 in NE 7.0 mph 9.0 mph 45 % 0.00 in
11:10 35.4 °F 15.6 °F 30.47 in WNW 1.0 mph 12.0 mph 44 % 0.00 in
11:15 35.8 °F 16.5 °F 30.47 in NNW 6.0 mph 12.0 mph 45 % 0.00 in
11:17 35.8 °F 16.0 °F 30.47 in North 4.0 mph 12.0 mph 44 % 0.00 in
11:22 36.0 °F 16.2 °F 30.46 in NNW 6.0 mph 12.0 mph 44 % 0.00 in
11:27 36.1 °F 16.3 °F 30.46 in NNW 5.0 mph 10.0 mph 44 % 0.00 in
11:32 36.7 °F 16.9 °F 30.46 in NW 5.0 mph 9.0 mph 44 % 0.00 in
11:37 37.2 °F 16.7 °F 30.45 in NW 4.0 mph 9.0 mph 43 % 0.00 in
11:39 37.2 °F 16.2 °F 30.45 in NW 2.0 mph 9.0 mph 42 % 0.00 in
11:46 37.4 °F 16.3 °F 30.45 in North 7.0 mph 9.0 mph 42 % 0.00 in
11:49 37.6 °F 16.0 °F 30.44 in North 1.0 mph 9.0 mph 41 % 0.00 in
11:51 37.2 °F 15.1 °F 30.44 in West 4.0 mph 9.0 mph 40 % 0.00 in
11:56 37.6 °F 16.0 °F 30.44 in North 4.0 mph 9.0 mph 41 % 0.00 in
11:57 37.6 °F 16.0 °F 30.44 in North 5.0 mph 9.0 mph 41 % 0.00 in
12:02 37.9 °F 15.8 °F 30.43 in NW 6.0 mph 10.0 mph 40 % 0.00 in
12:03 37.9 °F 16.3 °F 30.43 in NW 4.0 mph 10.0 mph 41 % 0.00 in
12:09 38.1 °F 16.0 °F 30.43 in NW 2.0 mph 10.0 mph 40 % 0.00 in
12:14 38.3 °F 16.7 °F 30.43 in Calm   10.0 mph 41 % 0.00 in
12:19 39.0 °F 16.7 °F 30.43 in Calm   9.0 mph 40 % 0.00 in
12:20 39.2 °F 17.4 °F 30.42 in North 4.0 mph 9.0 mph 41 % 0.00 in
12:22 39.6 °F 17.2 °F 30.42 in NNE 3.0 mph 9.0 mph 40 % 0.00 in
12:27 39.9 °F 17.6 °F 30.42 in NNW 3.0 mph 8.0 mph 40 % 0.00 in
12:28 39.9 °F 17.6 °F 30.42 in NNW 8.0 mph 8.0 mph 40 % 0.00 in
12:33 40.1 °F 17.8 °F 30.41 in WSW 2.0 mph 9.0 mph 40 % 0.00 in
12:36 40.5 °F 17.4 °F 30.41 in WNW 2.0 mph 9.0 mph 39 % 0.00 in
12:41 40.1 °F 16.5 °F 30.41 in SW 1.0 mph 9.0 mph 38 % 0.00 in
12:44 40.3 °F 18.0 °F 30.41 in West 2.0 mph 9.0 mph 40 % 0.00 in
12:53 41.4 °F 18.3 °F 30.40 in NNW 4.0 mph 7.0 mph 39 % 0.00 in
12:58 41.7 °F 17.4 °F 30.40 in North 4.0 mph 8.0 mph 37 % 0.00 in
12:59 41.7 °F 18.0 °F 30.40 in NNW 5.0 mph 8.0 mph 38 % 0.00 in
13:01 41.5 °F 17.8 °F 30.40 in NNW 6.0 mph 8.0 mph 38 % 0.00 in
13:06 41.5 °F 17.8 °F 30.39 in North 3.0 mph 8.0 mph 38 % 0.00 in
13:07 41.5 °F 17.8 °F 30.39 in NNE 3.0 mph 8.0 mph 38 % 0.00 in
13:13 41.9 °F 17.6 °F 30.38 in North 2.0 mph 8.0 mph 37 % 0.00 in
13:18 42.1 °F 17.6 °F 30.38 in Calm   7.0 mph 37 % 0.00 in
13:19 42.1 °F 17.6 °F 30.38 in NE 1.0 mph 7.0 mph 37 % 0.00 in
13:20 42.1 °F 18.3 °F 30.38 in North 1.0 mph 7.0 mph 38 % 0.00 in
13:25 42.3 °F 17.2 °F 30.38 in NW 1.0 mph 10.0 mph 36 % 0.00 in
13:29 42.3 °F 17.8 °F 30.37 in NNW 3.0 mph 10.0 mph 37 % 0.00 in
13:30 42.3 °F 18.5 °F 30.37 in NNE 3.0 mph 10.0 mph 38 % 0.00 in
13:36 42.6 °F 18.1 °F 30.37 in WSW 1.0 mph 10.0 mph 37 % 0.00 in
13:38 42.6 °F 18.1 °F 30.37 in Calm   10.0 mph 37 % 0.00 in
13:41 43.2 °F 18.0 °F 30.37 in East 1.0 mph 7.0 mph 36 % 0.00 in
13:44 43.3 °F 18.1 °F 30.37 in WNW 1.0 mph 7.0 mph 36 % 0.00 in
13:47 43.3 °F 18.1 °F 30.36 in NW 3.0 mph 7.0 mph 36 % 0.00 in
13:49 43.5 °F 19.0 °F 30.36 in WNW 2.0 mph 7.0 mph 37 % 0.00 in
13:55 43.9 °F 19.9 °F 30.36 in Calm   5.0 mph 38 % 0.00 in
14:00 44.2 °F 19.0 °F 30.36 in NW 6.0 mph 8.0 mph 36 % 0.00 in
14:01 44.2 °F 18.3 °F 30.36 in WNW 5.0 mph 8.0 mph 35 % 0.00 in
14:03 44.2 °F 18.3 °F 30.36 in NNW 5.0 mph 8.0 mph 35 % 0.00 in
14:07 43.9 °F 18.7 °F 30.36 in NNW 4.0 mph 8.0 mph 36 % 0.00 in
14:12 44.1 °F 18.1 °F 30.35 in Calm   8.0 mph 35 % 0.00 in
14:17 44.6 °F 18.7 °F 30.35 in West 1.0 mph 8.0 mph 35 % 0.00 in
14:20 44.8 °F 18.9 °F 30.35 in North 5.0 mph 8.0 mph 35 % 0.00 in
14:25 45.0 °F 18.9 °F 30.35 in NNW 2.0 mph 10.0 mph 35 % 0.00 in
14:28 45.1 °F 19.0 °F 30.35 in NNE 1.0 mph 10.0 mph 35 % 0.00 in
14:33 45.1 °F 19.0 °F 30.35 in WNW 2.0 mph 10.0 mph 35 % 0.00 in
14:35 45.3 °F 18.7 °F 30.35 in NW 1.0 mph 10.0 mph 34 % 0.00 in
14:38 45.3 °F 18.7 °F 30.35 in WNW 1.0 mph 10.0 mph 34 % 0.00 in
14:41 45.5 °F 18.7 °F 30.35 in WNW 4.0 mph 9.0 mph 34 % 0.00 in
14:46 45.3 °F 18.7 °F 30.34 in North 6.0 mph 9.0 mph 34 % 0.00 in
14:48 45.5 °F 18.7 °F 30.34 in Calm   9.0 mph 34 % 0.00 in
14:53 45.7 °F 18.1 °F 30.34 in NW 1.0 mph 9.0 mph 33 % 0.00 in
14:54 45.7 °F 18.9 °F 30.34 in NW 3.0 mph 9.0 mph 34 % 0.00 in
14:55 45.7 °F 18.1 °F 30.34 in NNW 6.0 mph 9.0 mph 33 % 0.00 in
15:00 45.7 °F 18.9 °F 30.34 in Calm   9.0 mph 34 % 0.00 in
15:01 45.7 °F 18.9 °F 30.34 in NW 2.0 mph 9.0 mph 34 % 0.00 in
15:06 46.0 °F 18.5 °F 30.33 in WSW 2.0 mph 9.0 mph 33 % 0.00 in
15:09 46.0 °F 18.5 °F 30.33 in WNW 2.0 mph 9.0 mph 33 % 0.00 in
15:14 46.2 °F 18.7 °F 30.33 in North 7.0 mph 7.0 mph 33 % 0.00 in
15:17 46.2 °F 19.4 °F 30.33 in North 1.0 mph 7.0 mph 34 % 0.00 in
15:22 46.2 °F 18.7 °F 30.34 in NW 2.0 mph 7.0 mph 33 % 0.00 in
15:27 46.9 °F 19.9 °F 30.33 in NNW 4.0 mph 7.0 mph 34 % 0.00 in
15:29 46.9 °F 18.7 °F 30.33 in NNW 3.0 mph 7.0 mph 32 % 0.00 in
15:34 46.9 °F 19.4 °F 30.33 in NNW 3.0 mph 8.0 mph 33 % 0.00 in
15:36 46.9 °F 19.4 °F 30.33 in NNW 3.0 mph 8.0 mph 33 % 0.00 in
15:37 46.9 °F 19.4 °F 30.33 in NW 6.0 mph 8.0 mph 33 % 0.00 in
15:42 46.9 °F 19.4 °F 30.33 in NNW 6.0 mph 8.0 mph 33 % 0.00 in
15:44 46.8 °F 18.5 °F 30.33 in North 1.0 mph 8.0 mph 32 % 0.00 in
15:49 46.9 °F 19.4 °F 30.33 in NW 3.0 mph 8.0 mph 33 % 0.00 in
15:50 46.9 °F 19.4 °F 30.33 in NW 3.0 mph 8.0 mph 33 % 0.00 in
15:55 46.9 °F 19.4 °F 30.33 in NW 3.0 mph 7.0 mph 33 % 0.00 in
15:57 46.9 °F 19.4 °F 30.33 in NW 5.0 mph 7.0 mph 33 % 0.00 in
16:02 46.8 °F 19.2 °F 30.32 in NW 3.0 mph 8.0 mph 33 % 0.00 in
16:09 46.9 °F 19.9 °F 30.32 in NW 3.0 mph 8.0 mph 34 % 0.00 in
16:11 46.9 °F 19.4 °F 30.32 in NNW 1.0 mph 8.0 mph 33 % 0.00 in
16:14 47.1 °F 20.1 °F 30.32 in NNE 2.0 mph 8.0 mph 34 % 0.00 in
16:16 47.3 °F 20.3 °F 30.32 in NNW 1.0 mph 6.0 mph 34 % 0.00 in
16:21 47.3 °F 20.3 °F 30.32 in NW 5.0 mph 7.0 mph 34 % 0.00 in
16:22 47.3 °F 19.6 °F 30.32 in WNW 3.0 mph 7.0 mph 33 % 0.00 in
16:27 47.3 °F 19.6 °F 30.32 in WNW 3.0 mph 7.0 mph 33 % 0.00 in
16:30 47.3 °F 19.6 °F 30.32 in NNW 3.0 mph 7.0 mph 33 % 0.00 in
16:33 47.1 °F 20.1 °F 30.32 in North 2.0 mph 7.0 mph 34 % 0.00 in
16:36 46.9 °F 19.9 °F 30.32 in NNW 1.0 mph 5.0 mph 34 % 0.00 in
16:41 46.9 °F 19.9 °F 30.32 in NW 1.0 mph 4.0 mph 34 % 0.00 in
16:44 46.9 °F 19.9 °F 30.32 in NW 1.0 mph 4.0 mph 34 % 0.00 in
16:49 46.6 °F 19.8 °F 30.32 in WNW 2.0 mph 5.0 mph 34 % 0.00 in
16:52 46.4 °F 19.6 °F 30.32 in North 4.0 mph 5.0 mph 34 % 0.00 in
17:01 46.0 °F 19.9 °F 30.32 in Calm   6.0 mph 35 % 0.00 in
17:02 46.0 °F 19.9 °F 30.32 in NW 1.0 mph 6.0 mph 35 % 0.00 in
17:04 46.0 °F 20.5 °F 30.32 in North 2.0 mph 6.0 mph 36 % 0.00 in
17:08 45.9 °F 20.5 °F 30.32 in Calm   6.0 mph 36 % 0.00 in
17:13 45.7 °F 20.3 °F 30.32 in Calm   5.0 mph 36 % 0.00 in
17:18 45.3 °F 20.7 °F 30.33 in Calm   5.0 mph 37 % 0.00 in
17:23 45.0 °F 20.8 °F 30.33 in Calm   5.0 mph 38 % 0.00 in
17:26 45.0 °F 20.8 °F 30.33 in NNW 1.0 mph 3.0 mph 38 % 0.00 in
17:29 44.8 °F 20.7 °F 30.33 in NW 1.0 mph 3.0 mph 38 % 0.00 in
17:35 44.4 °F 20.5 °F 30.33 in Calm   3.0 mph 38 % 0.00 in
17:40 44.2 °F 20.3 °F 30.33 in Calm   3.0 mph 38 % 0.00 in
17:45 43.9 °F 20.5 °F 30.33 in Calm   2.0 mph 39 % 0.00 in
17:46 43.9 °F 20.5 °F 30.33 in Calm   2.0 mph 39 % 0.00 in
17:51 43.2 °F 20.5 °F 30.33 in Calm   2.0 mph 40 % 0.00 in
17:52 43.2 °F 20.5 °F 30.33 in Calm   2.0 mph 40 % 0.00 in
17:53 43.2 °F 20.5 °F 30.33 in Calm   2.0 mph 40 % 0.00 in
17:59 42.1 °F 20.1 °F 30.33 in Calm   1.0 mph 41 % 0.00 in
18:06 40.8 °F 21.2 °F 30.33 in Calm     45 % 0.00 in
18:12 40.3 °F 21.7 °F 30.33 in Calm     47 % 0.00 in
18:14 39.9 °F 21.4 °F 30.33 in Calm     47 % 0.00 in
18:20 38.8 °F 20.3 °F 30.33 in Calm     47 % 0.00 in
18:22 38.7 °F 20.7 °F 30.33 in Calm     48 % 0.00 in
18:26 37.9 °F 21.4 °F 30.33 in Calm     51 % 0.00 in
18:31 37.6 °F 21.9 °F 30.33 in Calm     53 % 0.00 in
18:38 37.0 °F 21.9 °F 30.33 in Calm     54 % 0.00 in
18:42 36.7 °F 21.6 °F 30.33 in Calm     54 % 0.00 in
18:44 36.3 °F 21.7 °F 30.34 in Calm     55 % 0.00 in
18:47 36.0 °F 21.4 °F 30.34 in Calm     55 % 0.00 in
18:52 35.8 °F 23.2 °F 30.33 in Calm     60 % 0.00 in
18:58 36.1 °F 23.2 °F 30.34 in Calm     59 % 0.00 in
18:59 36.1 °F 23.5 °F 30.34 in Calm     60 % 0.00 in
19:04 36.0 °F 23.4 °F 30.34 in Calm     60 % 0.00 in
19:05 35.8 °F 23.2 °F 30.34 in Calm     60 % 0.00 in
19:10 35.2 °F 23.2 °F 30.34 in Calm     61 % 0.00 in
19:14 35.1 °F 23.7 °F 30.34 in Calm     63 % 0.00 in
19:16 35.1 °F 23.7 °F 30.34 in Calm     63 % 0.00 in
19:22 34.9 °F 23.9 °F 30.34 in Calm     64 % 0.00 in
19:27 34.5 °F 24.3 °F 30.34 in Calm     66 % 0.00 in
19:31 34.3 °F 23.7 °F 30.34 in Calm     65 % 0.00 in
19:32 34.3 °F 23.7 °F 30.34 in Calm     65 % 0.00 in
19:37 34.2 °F 24.1 °F 30.34 in Calm     66 % 0.00 in
19:39 34.0 °F 23.9 °F 30.34 in Calm     66 % 0.00 in
19:44 34.0 °F 23.9 °F 30.34 in Calm     66 % 0.00 in
19:45 33.8 °F 23.4 °F 30.34 in Calm     65 % 0.00 in
19:50 33.4 °F 23.4 °F 30.35 in Calm     66 % 0.00 in
19:51 33.4 °F 23.4 °F 30.35 in Calm     66 % 0.00 in
19:56 32.9 °F 22.8 °F 30.35 in Calm     66 % 0.00 in
20:01 32.4 °F 22.6 °F 30.35 in Calm     67 % 0.00 in
20:06 32.4 °F 23.7 °F 30.35 in Calm     70 % 0.00 in
20:10 32.7 °F 24.4 °F 30.35 in Calm     71 % 0.00 in
20:16 33.1 °F 24.6 °F 30.35 in Calm     71 % 0.00 in
20:17 33.1 °F 24.6 °F 30.35 in Calm     71 % 0.00 in
20:22 32.7 °F 24.4 °F 30.35 in Calm     71 % 0.00 in
20:27 32.5 °F 24.4 °F 30.35 in Calm     72 % 0.00 in
20:28 32.5 °F 24.4 °F 30.35 in Calm     72 % 0.00 in
20:33 32.7 °F 25.0 °F 30.35 in Calm     73 % 0.00 in
20:38 32.5 °F 24.4 °F 30.35 in Calm     72 % 0.00 in
20:39 32.5 °F 24.4 °F 30.35 in Calm     72 % 0.00 in
20:44 32.5 °F 24.8 °F 30.35 in Calm     73 % 0.00 in
20:46 32.5 °F 24.8 °F 30.35 in Calm     73 % 0.00 in
20:50 32.4 °F 24.6 °F 30.35 in Calm     73 % 0.00 in
20:55 32.2 °F 24.4 °F 30.35 in Calm     73 % 0.00 in
21:00 31.8 °F 24.4 °F 30.35 in Calm     74 % 0.00 in
21:01 31.8 °F 24.4 °F 30.35 in Calm     74 % 0.00 in
21:07 31.3 °F 23.9 °F 30.35 in Calm     74 % 0.00 in
21:12 30.9 °F 24.3 °F 30.35 in Calm     76 % 0.00 in
21:17 30.6 °F 23.9 °F 30.35 in Calm     76 % 0.00 in
21:19 30.6 °F 23.9 °F 30.35 in Calm     76 % 0.00 in
21:24 30.4 °F 24.3 °F 30.35 in Calm     78 % 0.00 in
21:29 30.2 °F 24.3 °F 30.35 in Calm     78 % 0.00 in
21:31 30.2 °F 24.4 °F 30.35 in Calm     79 % 0.00 in
21:35 30.0 °F 24.1 °F 30.35 in Calm     78 % 0.00 in
21:40 29.8 °F 24.1 °F 30.35 in Calm     79 % 0.00 in
21:45 29.8 °F 24.4 °F 30.35 in Calm     80 % 0.00 in
21:46 29.8 °F 24.4 °F 30.35 in Calm     80 % 0.00 in
21:48 29.7 °F 23.9 °F 30.35 in Calm     79 % 0.00 in
21:51 29.8 °F 24.4 °F 30.35 in Calm     80 % 0.00 in
21:55 30.0 °F 25.2 °F 30.35 in Calm     82 % 0.00 in
21:56 30.4 °F 25.5 °F 30.35 in Calm     82 % 0.00 in
22:01 30.6 °F 25.7 °F 30.35 in Calm     82 % 0.00 in
22:03 30.6 °F 25.7 °F 30.35 in Calm     82 % 0.00 in
22:12 30.6 °F 25.3 °F 30.36 in Calm     81 % 0.00 in
22:13 30.6 °F 25.3 °F 30.36 in Calm     81 % 0.00 in
22:14 30.4 °F 25.3 °F 30.36 in Calm     81 % 0.00 in
22:15 30.4 °F 25.3 °F 30.36 in Calm     81 % 0.00 in
22:16 30.4 °F 25.3 °F 30.36 in Calm     81 % 0.00 in
22:17 30.2 °F 25.2 °F 30.36 in Calm     81 % 0.00 in
22:21 30.0 °F 25.2 °F 30.36 in Calm     82 % 0.00 in
22:22 30.0 °F 25.2 °F 30.36 in Calm     82 % 0.00 in
22:27 29.8 °F 25.3 °F 30.36 in Calm     83 % 0.00 in
22:30 29.7 °F 24.8 °F 30.36 in Calm     82 % 0.00 in
22:32 29.5 °F 24.6 °F 30.36 in Calm     82 % 0.00 in
22:37 29.1 °F 25.0 °F 30.36 in Calm     84 % 0.00 in
22:42 28.9 °F 24.4 °F 30.36 in Calm     83 % 0.00 in
22:44 28.8 °F 24.3 °F 30.36 in Calm     83 % 0.00 in
22:45 28.6 °F 24.1 °F 30.36 in Calm     83 % 0.00 in
22:46 28.6 °F 24.1 °F 30.36 in Calm     83 % 0.00 in
22:50 28.4 °F 24.3 °F 30.36 in Calm     84 % 0.00 in
22:55 28.8 °F 24.8 °F 30.36 in Calm     85 % 0.00 in
22:56 28.8 °F 24.8 °F 30.36 in Calm     85 % 0.00 in
22:57 28.8 °F 25.2 °F 30.36 in Calm     86 % 0.00 in
23:02 28.8 °F 25.2 °F 30.36 in Calm     86 % 0.00 in
23:07 28.6 °F 24.6 °F 30.36 in Calm     85 % 0.00 in
23:10 28.4 °F 24.4 °F 30.36 in Calm     85 % 0.00 in
23:15 28.2 °F 24.6 °F 30.36 in Calm     86 % 0.00 in
23:16 28.4 °F 24.8 °F 30.36 in Calm     86 % 0.00 in
23:21 28.6 °F 25.0 °F 30.36 in Calm     86 % 0.00 in
23:25 28.6 °F 25.2 °F 30.36 in Calm     87 % 0.00 in
23:30 28.6 °F 25.2 °F 30.36 in Calm     87 % 0.00 in
23:32 28.6 °F 25.0 °F 30.36 in Calm     86 % 0.00 in
23:34 28.6 °F 25.0 °F 30.36 in Calm     86 % 0.00 in
23:37 28.4 °F 25.0 °F 30.36 in Calm     87 % 0.00 in
23:39 28.2 °F 24.6 °F 30.36 in Calm     86 % 0.00 in
23:44 28.2 °F 24.6 °F 30.36 in Calm     86 % 0.00 in
23:49 28.2 °F 24.8 °F 30.36 in Calm     87 % 0.00 in
23:54 28.2 °F 24.8 °F 30.36 in Calm     87 % 0.00 in
23:55 28.2 °F 24.8 °F 30.36 in Calm     87 % 0.00 in
23:59 28.2 °F 24.8 °F 30.36 in Calm     87 % 0.00 in
Spring, Texas: Villages of Bridgestone
Compliments of Weather Underground - 3.5 mb

Script developed by  Jim McMurry - jmcmurry@mwt.net Adapted for the template by  Wim van der Kuil - Leuven-Template.eu

You find our weather info also at:

UK Metoffice

WeatherCloud

Weather Underground

Mid-South Weather Network

AWEKAS

Citizen Weather Observer Program (CWOP)

HAMweather, WeatherForYou, PWS Weather

Equipment we use:

Weather-station
Davis Vantage Vue

Weather-program
Meteohub

Weather-server
Debian 7.9 x86 (Guest)

Provider
DreamHost

Davis Vantage Vue

Meteohub

Debian 7.9 x86 (Guest)

DreamHost